STARLINK-32552, 62174

Orbit data source: Space-Track

STARLINK-32552, 62174 is a payload satellite owned by SpaceX/Seattle (US) in LEO that was launched on Sat, 30 Nov 2024 UTC via an FALCON 9 launch vehicle from the Air Force Western Test Range (AFWTR). Payload-class satellites include a variety of spacecraft equipped with specific instruments for various scientific and technological missions. These include communications satellites like Starlink; space stations such as the ISS; scientific satellites like the Hubble; Earth observation satellites from companies like Planet Labs, Umbra, and HawkEye 360; GPS; miniature CubeSats for education and research; and military/defense satellites.

Loading next visibility...
Identifier
62174, 2024-225M
Orbit
LEO
Country
Flag of USUS
Related business
Manufacturer
SpaceX/Seattle
Mission
Operational Commercial Communications
Bus & Motor
STARLINK V2M, Unknown motor
Mass
730 kg wet, ~700 kg dry
Launch date (UTC)
2024-11-30 (1 year ago)
Launch vehicle
FALCON 9
Launch site
Air Force Western Test Range (AFWTR)
Object type
Payload
Rocket body
Debris
Shape & HBR
Box + 2 Pan, 17.7 m
Radar Cross Section
33.884 m², Large (>1 m²)

Expand to show TLE details & history
Last TLE update: 13 hours ago

TLE from 13 hours ago
0 STARLINK-32552
1 62174U 24225M   26062.71881581  .00009517  00000-0  80418-3 0  9996
2 62174  70.0029 179.3921 0003585 270.1523  89.9225 14.98336880 68989
Epoch: 2026-03-03T17:15Z
TLE epoch observation values (Epoch: 2026-03-03T17:15:05.685Z)
Latitude
-0.00008°
Longitude
119.12454°
Altitude
574.456 km
Speed
7.574 km/s
True Right ascension
11h 57m 34s
True Declination
0° 00' 00"
Sunlit
Object was in full shadow at epoch
Visualization orbit readout
Latitude
Unknown
Longitude
Unknown
Altitude
Unknown
Speed
Unknown
Apparent Right ascension
Unknown
Apparent Declination
Unknown
Sunlit
N/A
Visualization observer readout
Local Sidereal Time
10:02:14
Azimuth
Unknown
Elevation
Unknown
Doppler factor
Unknown
Orbital elements
Apogee altitude
572.473 km
Perigee altitude
567.492 km
Semi-major axis
6,948.12 km
Eccentricity
0.00036
Inclination
70.0029°
RAAN
179.3921°
Arg. of periapsis
270.1523°
True anomaly
89.96358°
Mean anomaly
89.9225°
Eccentric anomaly
89.94304°
Mean motion
3.74751 °/min
Orbital period
96.06 mins
BSTAR
0.00080418
Loading maneuver chart data...
Computing Atmospheric mass density...
Loading historical data...
Loading historical data...
Loading historical data...
Loading historical data...
Loading historical data...
Loading historical data...
Loading historical data...

Documentation

Showing up to 5 results
|